Simultaneous Nadir Overpasses (SNOs) Predictions

Prediction of SNOs between NOAA-15 and METOP-C Satellite Orbit:

Table of predicted SNOs for the next 14.0 days since TLE Epoch: 3/16/2021
Index Date (NOAA-15) Time (NOAA-15) Lat,Lon (NOAA-15) SZA (NOAA-15 ) Date (METOP-C) Time (METOP-C) Lat,Lon (METOP-C) SZA (METOP-C ) Distance(km) Time Diff (sec)
1 03/29/2021 18:45:37 -80.98, 115.75 101.00 03/29/2021 18:44:22 -81.00, 115.80 101.01 1.95 75
2 03/29/2021 19:36:12 80.99, -76.98 78.99 03/29/2021 19:35:03 81.00, -76.95 78.97 1.04 69
3 03/29/2021 20:26:40 -81.00, 90.23 101.04 03/29/2021 20:25:44 -80.99, 90.30 101.06 1.26 56
4 03/29/2021 21:17:15 81.00,-102.50 78.95 03/29/2021 21:16:25 80.99,-102.45 78.92 1.51 50
5 03/29/2021 22:07:42 -80.99, 65.08 101.06 03/29/2021 22:07:05 -81.00, 65.17 101.06 2.00 37
6 03/29/2021 22:58:17 81.00,-127.66 78.93 03/29/2021 22:57:46 81.00,-127.58 78.92 1.39 31
7 03/29/2021 23:48:45 -81.00, 39.57 101.10 03/29/2021 23:48:27 -81.00, 39.67 101.10 2.05 18
8 03/30/2021 00:39:20 81.01,-153.18 78.88 03/30/2021 00:39:08 80.99,-153.07 78.88 2.42 12
9 03/30/2021 01:29:47 -81.00, 14.42 101.12 03/30/2021 01:29:48 -81.00, 14.54 101.10 2.36 1
10 03/30/2021 02:20:22 81.00,-178.33 78.86 03/30/2021 02:20:29 81.00,-178.20 78.88 2.15 7



Historial Predications of SNOs between NOAA-15 and METOP-C
